Regional Weather Roundup
Issued by NWS

Home | Current Version | Previous Version | Text Only | Print | Product List | Glossary Off
Versions: 1 2 3 4 5 6 7 8 9 10 11 12 13 14 15 16 17 18 19 20 21 22 23 24 25 26 27 28 29 30 31 32 33 34 35 36 37 38 39 40 41 42 43 44 45 46 47 48 49 50

000
ASUS43 KLOT 270500
RWRIL

ILLINOIS REGIONAL WEATHER ROUNDUP
NATIONAL WEATHER SERVICE CHICAGO/ROMEOVILLE IL
1100 PM CST FRI DEC 26 2014

NOTE: "FAIR" INDICATES FEW OR NO CLOUDS BELOW 12,000 FEET WITH NO
SIGNIFICANT WEATHER AND/OR OBSTRUCTIONS TO VISIBILITY.

* THESE STATIONS ARE NOT UNDER NWS QUALITY CONTROL. THEY ALSO MAY NOT
  REPORT WEATHER SUCH AS PRECIPITATION OR FOG.

ILZ001-002-007-009-015-016-024-270600-
NORTHWEST ILLINOIS

CITY           SKY/WX    TMP DP  RH WIND       PRES   REMARKS
MOLINE         LGT RAIN  44  40  85 E5        29.95F
STERLING*      CLOUDY    45  39  81 S3        29.99S
$$

ILZ003-004-008-010-011-017-018-270600-
NORTH CENTRAL ILLINOIS

CITY           SKY/WX    TMP DP  RH WIND       PRES   REMARKS
ROCKFORD       CLOUDY    43  39  86 CALM      30.02S
$$

ILZ005-006-012>014-019>023-270600-
NORTHEAST ILLINOIS

CITY           SKY/WX    TMP DP  RH WIND       PRES   REMARKS
CHICAGO-OHARE  CLOUDY    46  41  82 S8        30.02R
CHICAGO-MIDWAY CLOUDY    48  43  82 S8        30.03S
AURORA         CLOUDY    46  40  79 S8        30.02S
WAUKEGAN       CLOUDY    44  38  79 SE3       30.01S
DUPAGE AIRPORT CLOUDY    46  42  86 S7        30.01F
WHEELING       CLOUDY    47  42  83 S6        30.04R
NORTHERLY ISL    N/A     47  41  80 S7          N/A
$$

LMZ740>746-270600-
SOUTHERN LAKE MICHIGAN

STATION/POSITION SKY/WX   TEMP    WIND        PRES    VSBY  WAVE
                          AIR SEA DIR/SP/G                  HT/PER
                          (F)     (DEG/KT/KT) (MB)    (MI)  (FT/S)
WAUKEGAN HARBOR            42     200/  2/  5   N/A
HARRISON CRIB              48     180/ 13/ 14   N/A
BURNHAM HARBOR             47     170/  7/ 13   N/A
CALUMET HARBOR             47     180/  7/  9 1016.3R
MICHIGAN CITY              47     150/  8/ 10   N/A
$$

ILZ025>027-034>036-040-047-049-050-058-095>099-270600-
WEST-CENTRAL ILLINOIS

CITY           SKY/WX    TMP DP  RH WIND       PRES   REMARKS
QUINCY         CLOUDY    51  46  83 S13       29.97S
MACOMB*        CLOUDY    47  44  87 S9        29.99F
$$

ILZ028>032-037-038-041>044-048-051>054-059>061-270600-
CENTRAL ILLINOIS

CITY           SKY/WX    TMP DP  RH WIND       PRES   REMARKS
DECATUR        CLOUDY    49  43  80 S14       30.06S
PEORIA         MOCLDY    47  42  83 S12       30.01R
LINCOLN*       CLOUDY    48  43  82 S10       30.04R
SPRINGFIELD    LGT RAIN  48  45  89 S15       30.04R FOG
TAYLORVILLE    NOT AVBL
$$

ILZ033-039-045-046-055>057-062-063-270600-
EAST-CENTRAL ILLINOIS

CITY           SKY/WX    TMP DP  RH WIND       PRES   REMARKS
CHAMPAIGN      CLOUDY    48  43  82 S10       30.06F
MATTOON        MOCLDY    48  42  80 S13       30.06F
$$

ILZ079-100>102-270600-
SOUTHWEST ILLINOIS

CITY           SKY/WX    TMP DP  RH WIND       PRES   REMARKS
BELLEVILLE     LGT RAIN  50  43  76 S8        30.08R
CAHOKIA*       RAIN      50  43  77 S7        30.07R
$$

ILZ064>066-069>071-074>076-080>082-084>086-088>090-092>094-270600-
SOUTH-CENTRAL ILLINOIS

CITY           SKY/WX    TMP DP  RH WIND       PRES   REMARKS
CARBONDALE     CLOUDY    50  38  63 S13       30.13S
MT. VERNON     MOCLDY    46  36  66 S10       30.12S
$$

ILZ067-068-072-073-078-083-087-091-270600-
SOUTHEAST ILLINOIS

CITY           SKY/WX    TMP DP  RH WIND       PRES   REMARKS
LAWRENCEVILLE  PTCLDY    44  40  85 S8        30.15R
ROBINSON*      CLOUDY    46  40  81 S6        30.15R
$$

ABBREVIATIONS USED IN REMARKS
   TC - TEMPERATURE IN CELSIUS
  WCI - WIND CHILL INDEX
   HX - HEAT INDEX
  VSB - VISIBILITY
$$




USA.gov is the U.S. government's official web portal to all federal, state and local government web resources and services.